Time,TemperatureF,DewpointF,PressureIn,WindDirection,WindDirectionDegrees,WindSpeedMPH,WindSpeedGustMPH,Humidity,HourlyPrecipIn,Conditions,Clouds,dailyrainin,SoftwareType,DateUTC
2013-09-26 00:01:00,56.8,48.6,29.94,WNW,300,4.0,4.0,74,0.00,,,0.00,Wunderground v.1.15,2013-09-26 04:01:00,
2013-09-26 00:02:00,56.8,48.6,29.95,WNW,300,3.0,4.0,74,0.00,,,0.00,Wunderground v.1.15,2013-09-26 04:02:00,
2013-09-26 00:03:00,56.8,48.2,29.94,WNW,300,3.0,4.0,73,0.00,,,0.00,Wunderground v.1.15,2013-09-26 04:03:00,
2013-09-26 00:04:00,56.8,48.2,29.95,WNW,299,2.0,4.0,73,0.00,,,0.00,Wunderground v.1.15,2013-09-26 04:04:00,
2013-09-26 00:09:00,56.8,48.2,29.94,WNW,300,3.0,4.0,73,0.00,,,0.00,Wunderground v.1.15,2013-09-26 04:09:00,
2013-09-26 00:14:00,56.8,48.6,29.95,WNW,300,2.0,4.0,74,0.00,,,0.00,Wunderground v.1.15,2013-09-26 04:14:00,
2013-09-26 00:20:00,56.7,48.5,29.95,NW,309,2.0,2.0,74,0.00,,,0.00,Wunderground v.1.15,2013-09-26 04:20:00,
2013-09-26 00:26:00,56.7,48.5,29.95,NW,309,2.0,3.0,74,0.00,,,0.00,Wunderground v.1.15,2013-09-26 04:26:00,
2013-09-26 00:31:00,56.7,48.5,29.95,NW,317,1.0,3.0,74,0.00,,,0.00,Wunderground v.1.15,2013-09-26 04:31:00,
2013-09-26 00:36:00,56.6,48.4,29.95,NW,316,2.0,3.0,74,0.00,,,0.00,Wunderground v.1.15,2013-09-26 04:36:00,
2013-09-26 00:42:00,56.6,48.4,29.95,NNW,331,0.0,2.0,74,0.00,,,0.00,Wunderground v.1.15,2013-09-26 04:42:00,
2013-09-26 00:47:00,56.6,48.4,29.95,NNW,333,2.0,2.0,74,0.00,,,0.00,Wunderground v.1.15,2013-09-26 04:47:00,
2013-09-26 00:52:00,56.6,48.4,29.95,NNW,333,1.0,2.0,74,0.00,,,0.00,Wunderground v.1.15,2013-09-26 04:52:00,
2013-09-26 00:58:00,56.5,48.3,29.95,North,350,2.0,6.0,74,0.00,,,0.00,Wunderground v.1.15,2013-09-26 04:58:00,
2013-09-26 01:03:00,56.5,48.3,29.95,NNW,335,3.0,5.0,74,0.00,,,0.00,Wunderground v.1.15,2013-09-26 05:03:00,
2013-09-26 01:09:00,56.4,48.2,29.96,WNW,302,2.0,5.0,74,0.00,,,0.00,Wunderground v.1.15,2013-09-26 05:09:00,
2013-09-26 01:14:00,56.4,47.9,29.95,North,5,3.0,6.0,73,0.00,,,0.00,Wunderground v.1.15,2013-09-26 05:14:00,
2013-09-26 01:20:00,56.4,47.9,29.96,North,355,2.0,3.0,73,0.00,,,0.00,Wunderground v.1.15,2013-09-26 05:20:00,
2013-09-26 01:25:00,56.3,47.8,29.96,NNW,344,1.0,4.0,73,0.00,,,0.00,Wunderground v.1.15,2013-09-26 05:25:00,
2013-09-26 01:31:00,56.3,47.8,29.96,NNW,340,3.0,4.0,73,0.00,,,0.00,Wunderground v.1.15,2013-09-26 05:31:00,
2013-09-26 01:36:00,56.3,47.4,29.96,North,350,4.0,4.0,72,0.00,,,0.00,Wunderground v.1.15,2013-09-26 05:36:00,
2013-09-26 01:41:00,56.3,47.4,29.96,North,355,1.0,2.0,72,0.00,,,0.00,Wunderground v.1.15,2013-09-26 05:41:00,
2013-09-26 01:47:00,56.3,47.4,29.96,NNW,327,2.0,2.0,72,0.00,,,0.00,Wunderground v.1.15,2013-09-26 05:47:00,
2013-09-26 01:52:00,56.3,47.4,29.96,NNW,328,3.0,3.0,72,0.00,,,0.00,Wunderground v.1.15,2013-09-26 05:52:00,
2013-09-26 01:57:00,56.3,47.0,29.96,NNW,347,2.0,5.0,71,0.00,,,0.00,Wunderground v.1.15,2013-09-26 05:57:00,
2013-09-26 02:02:00,56.3,47.4,29.95,North,355,1.0,2.0,72,0.00,,,0.00,Wunderground v.1.15,2013-09-26 06:02:00,
2013-09-26 02:07:00,56.2,47.3,29.95,North,355,1.0,3.0,72,0.00,,,0.00,Wunderground v.1.15,2013-09-26 06:07:00,
2013-09-26 02:12:00,56.3,47.4,29.95,North,355,1.0,3.0,72,0.00,,,0.00,Wunderground v.1.15,2013-09-26 06:12:00,
2013-09-26 02:17:00,56.3,47.4,29.96,North,355,0.0,3.0,72,0.00,,,0.00,Wunderground v.1.15,2013-09-26 06:17:00,
2013-09-26 02:22:00,56.3,47.4,29.96,NNW,330,1.0,4.0,72,0.00,,,0.00,Wunderground v.1.15,2013-09-26 06:22:00,
2013-09-26 02:27:00,56.2,47.3,29.96,NNW,334,4.0,4.0,72,0.00,,,0.00,Wunderground v.1.15,2013-09-26 06:27:00,
2013-09-26 02:32:00,56.2,47.3,29.96,NNW,333,2.0,2.0,72,0.00,,,0.00,Wunderground v.1.15,2013-09-26 06:32:00,
2013-09-26 02:37:00,56.2,47.3,29.96,NNW,334,1.0,4.0,72,0.00,,,0.00,Wunderground v.1.15,2013-09-26 06:37:00,
2013-09-26 02:42:00,56.2,47.3,29.96,NNW,333,2.0,3.0,72,0.00,,,0.00,Wunderground v.1.15,2013-09-26 06:42:00,
2013-09-26 02:47:00,56.2,47.3,29.96,NNW,334,1.0,4.0,72,0.00,,,0.00,Wunderground v.1.15,2013-09-26 06:47:00,
2013-09-26 02:52:00,56.1,47.6,29.96,NW,323,1.0,3.0,73,0.00,,,0.00,Wunderground v.1.15,2013-09-26 06:52:00,
2013-09-26 02:57:00,56.1,47.6,29.96,NW,322,2.0,3.0,73,0.00,,,0.00,Wunderground v.1.15,2013-09-26 06:57:00,
2013-09-26 03:02:00,56.0,47.5,29.96,NW,323,2.0,3.0,73,0.00,,,0.00,Wunderground v.1.15,2013-09-26 07:02:00,
2013-09-26 03:07:00,56.0,47.5,29.96,NW,322,1.0,3.0,73,0.00,,,0.00,Wunderground v.1.15,2013-09-26 07:07:00,
2013-09-26 03:12:00,56.0,47.5,29.96,NW,323,1.0,2.0,73,0.00,,,0.00,Wunderground v.1.15,2013-09-26 07:12:00,
2013-09-26 03:18:00,55.9,47.4,29.96,NW,325,3.0,3.0,73,0.00,,,0.00,Wunderground v.1.15,2013-09-26 07:18:00,
2013-09-26 03:23:00,55.9,47.4,29.96,NW,325,0.0,2.0,73,0.00,,,0.00,Wunderground v.1.15,2013-09-26 07:23:00,
2013-09-26 03:28:00,55.9,47.4,29.96,NW,325,1.0,2.0,73,0.00,,,0.00,Wunderground v.1.15,2013-09-26 07:28:00,
2013-09-26 03:33:00,55.9,47.4,29.96,NNW,341,0.0,3.0,73,0.00,,,0.00,Wunderground v.1.15,2013-09-26 07:33:00,
2013-09-26 03:38:00,55.9,47.4,29.96,NNW,340,2.0,3.0,73,0.00,,,0.00,Wunderground v.1.15,2013-09-26 07:38:00,
2013-09-26 03:43:00,55.9,47.4,29.96,NNW,341,0.0,1.0,73,0.00,,,0.00,Wunderground v.1.15,2013-09-26 07:43:00,
2013-09-26 03:48:00,55.9,47.4,29.96,NNW,340,0.0,1.0,73,0.00,,,0.00,Wunderground v.1.15,2013-09-26 07:48:00,
2013-09-26 03:53:00,55.8,47.3,29.97,NNW,341,1.0,2.0,73,0.00,,,0.00,Wunderground v.1.15,2013-09-26 07:53:00,
2013-09-26 03:58:00,55.8,47.3,29.97,NNW,340,0.0,2.0,73,0.00,,,0.00,Wunderground v.1.15,2013-09-26 07:58:00,
2013-09-26 04:03:00,55.8,47.3,29.97,NNW,341,1.0,1.0,73,0.00,,,0.00,Wunderground v.1.15,2013-09-26 08:03:00,
2013-09-26 04:08:00,55.7,47.2,29.97,NNW,341,0.0,2.0,73,0.00,,,0.00,Wunderground v.1.15,2013-09-26 08:08:00,
2013-09-26 04:13:00,55.7,47.2,29.97,NNW,341,0.0,2.0,73,0.00,,,0.00,Wunderground v.1.15,2013-09-26 08:13:00,
2013-09-26 04:18:00,55.7,47.2,29.97,NNW,341,0.0,2.0,73,0.00,,,0.00,Wunderground v.1.15,2013-09-26 08:18:00,
2013-09-26 04:23:00,55.7,47.5,29.97,NNW,341,2.0,2.0,74,0.00,,,0.00,Wunderground v.1.15,2013-09-26 08:23:00,
2013-09-26 04:28:00,55.7,47.2,29.97,NNW,341,0.0,2.0,73,0.00,,,0.00,Wunderground v.1.15,2013-09-26 08:28:00,
2013-09-26 04:33:00,55.6,47.1,29.97,NNW,341,1.0,1.0,73,0.00,,,0.00,Wunderground v.1.15,2013-09-26 08:33:00,
2013-09-26 04:38:00,55.5,47.0,29.97,NNW,341,0.0,2.0,73,0.00,,,0.00,Wunderground v.1.15,2013-09-26 08:38:00,
2013-09-26 04:43:00,55.5,47.0,29.97,NNW,341,0.0,2.0,73,0.00,,,0.00,Wunderground v.1.15,2013-09-26 08:43:00,
2013-09-26 04:48:00,55.4,46.9,29.97,NNW,340,1.0,3.0,73,0.00,,,0.00,Wunderground v.1.15,2013-09-26 08:48:00,
2013-09-26 04:53:00,55.4,46.9,29.97,NNW,341,0.0,2.0,73,0.00,,,0.00,Wunderground v.1.15,2013-09-26 08:53:00,
2013-09-26 04:58:00,55.3,46.8,29.97,NNW,341,1.0,4.0,73,0.00,,,0.00,Wunderground v.1.15,2013-09-26 08:58:00,
2013-09-26 05:03:00,55.2,46.7,29.97,NNW,341,0.0,1.0,73,0.00,,,0.00,Wunderground v.1.15,2013-09-26 09:03:00,
2013-09-26 05:08:00,55.1,46.6,29.97,NNW,341,0.0,2.0,73,0.00,,,0.00,Wunderground v.1.15,2013-09-26 09:08:00,
2013-09-26 05:13:00,55.0,46.5,29.97,North,9,3.0,5.0,73,0.00,,,0.00,Wunderground v.1.15,2013-09-26 09:13:00,
2013-09-26 05:18:00,55.0,46.5,29.97,North,355,6.0,6.0,73,0.00,,,0.00,Wunderground v.1.15,2013-09-26 09:18:00,
2013-09-26 05:23:00,54.9,46.4,29.97,NNW,348,3.0,4.0,73,0.00,,,0.00,Wunderground v.1.15,2013-09-26 09:23:00,
2013-09-26 05:28:00,54.8,46.3,29.97,NNW,345,3.0,6.0,73,0.00,,,0.00,Wunderground v.1.15,2013-09-26 09:28:00,
2013-09-26 05:33:00,54.8,46.3,29.97,North,360,3.0,5.0,73,0.00,,,0.00,Wunderground v.1.15,2013-09-26 09:33:00,
2013-09-26 05:38:00,54.8,46.3,29.97,North,360,3.0,5.0,73,0.00,,,0.00,Wunderground v.1.15,2013-09-26 09:38:00,
2013-09-26 05:43:00,54.7,46.2,29.97,North,360,3.0,6.0,73,0.00,,,0.00,Wunderground v.1.15,2013-09-26 09:43:00,
2013-09-26 05:48:00,54.7,46.6,29.98,NNE,13,2.0,6.0,74,0.00,,,0.00,Wunderground v.1.15,2013-09-26 09:48:00,
2013-09-26 05:53:00,54.6,46.5,29.97,NNW,340,4.0,5.0,74,0.00,,,0.00,Wunderground v.1.15,2013-09-26 09:53:00,
2013-09-26 05:58:00,54.6,46.1,29.98,North,11,3.0,5.0,73,0.00,,,0.00,Wunderground v.1.15,2013-09-26 09:58:00,
2013-09-26 06:03:00,54.5,46.0,29.98,North,5,3.0,5.0,73,0.00,,,0.00,Wunderground v.1.15,2013-09-26 10:03:00,
2013-09-26 06:08:00,54.5,46.0,29.98,North,355,2.0,6.0,73,0.00,,,0.00,Wunderground v.1.15,2013-09-26 10:08:00,
2013-09-26 06:13:00,54.5,46.4,29.98,NNW,346,2.0,5.0,74,0.00,,,0.00,Wunderground v.1.15,2013-09-26 10:13:00,
2013-09-26 06:18:00,54.5,46.4,29.98,NNW,346,0.0,5.0,74,0.00,,,0.00,Wunderground v.1.15,2013-09-26 10:18:00,
2013-09-26 06:23:00,54.4,46.3,29.98,NNW,344,3.0,4.0,74,0.00,,,0.00,Wunderground v.1.15,2013-09-26 10:23:00,
2013-09-26 06:28:00,54.4,46.3,29.98,NNW,331,2.0,4.0,74,0.00,,,0.00,Wunderground v.1.15,2013-09-26 10:28:00,
2013-09-26 06:33:00,54.4,46.3,29.98,NW,325,2.0,4.0,74,0.00,,,0.00,Wunderground v.1.15,2013-09-26 10:33:00,
2013-09-26 06:38:00,54.3,46.2,29.98,NW,323,3.0,4.0,74,0.00,,,0.00,Wunderground v.1.15,2013-09-26 10:38:00,
2013-09-26 06:43:00,54.2,46.1,29.98,NNW,327,1.0,3.0,74,0.00,,,0.00,Wunderground v.1.15,2013-09-26 10:43:00,
2013-09-26 06:48:00,54.2,46.1,29.98,NNW,328,1.0,4.0,74,0.00,,,0.00,Wunderground v.1.15,2013-09-26 10:48:00,
2013-09-26 06:53:00,54.2,46.1,29.98,NNW,331,4.0,5.0,74,0.00,,,0.00,Wunderground v.1.15,2013-09-26 10:53:00,
2013-09-26 06:58:00,54.2,46.1,29.99,NNW,344,1.0,5.0,74,0.00,,,0.00,Wunderground v.1.15,2013-09-26 10:58:00,
2013-09-26 07:03:00,54.2,46.1,29.99,NNW,347,1.0,4.0,74,0.00,,,0.00,Wunderground v.1.15,2013-09-26 11:03:00,
2013-09-26 07:08:00,54.1,46.0,29.99,NNW,336,2.0,5.0,74,0.00,,,0.00,Wunderground v.1.15,2013-09-26 11:08:00,
2013-09-26 07:13:00,54.1,46.0,29.99,NW,306,5.0,6.0,74,0.00,,,0.00,Wunderground v.1.15,2013-09-26 11:13:00,
2013-09-26 07:18:00,54.1,46.0,29.99,NNW,331,2.0,6.0,74,0.00,,,0.00,Wunderground v.1.15,2013-09-26 11:18:00,
2013-09-26 07:23:00,54.2,46.1,29.99,NNW,333,3.0,5.0,74,0.00,,,0.00,Wunderground v.1.15,2013-09-26 11:23:00,
2013-09-26 07:28:00,54.2,46.1,29.99,NW,323,4.0,6.0,74,0.00,,,0.00,Wunderground v.1.15,2013-09-26 11:28:00,
2013-09-26 07:33:00,54.3,45.8,29.99,NNW,336,3.0,5.0,73,0.00,,,0.00,Wunderground v.1.15,2013-09-26 11:33:00,
2013-09-26 07:38:00,54.4,45.9,29.99,NW,324,4.0,5.0,73,0.00,,,0.00,Wunderground v.1.15,2013-09-26 11:38:00,
2013-09-26 07:43:00,54.4,45.9,29.99,NNW,327,2.0,5.0,73,0.00,,,0.00,Wunderground v.1.15,2013-09-26 11:43:00,
2013-09-26 07:48:00,54.6,46.1,29.99,NNW,330,3.0,6.0,73,0.00,,,0.00,Wunderground v.1.15,2013-09-26 11:48:00,
2013-09-26 07:53:00,54.8,45.9,29.99,NW,321,6.0,7.0,72,0.00,,,0.00,Wunderground v.1.15,2013-09-26 11:53:00,
2013-09-26 07:58:00,55.0,46.1,30.00,NW,313,4.0,7.0,72,0.00,,,0.00,Wunderground v.1.15,2013-09-26 11:58:00,
2013-09-26 08:03:00,55.2,46.0,30.00,NW,311,3.0,8.0,71,0.00,,,0.00,Wunderground v.1.15,2013-09-26 12:03:00,
2013-09-26 08:08:00,55.4,46.2,30.00,NNW,346,4.0,8.0,71,0.00,,,0.00,Wunderground v.1.15,2013-09-26 12:08:00,
2013-09-26 08:13:00,55.5,45.9,30.00,North,5,5.0,6.0,70,0.00,,,0.00,Wunderground v.1.15,2013-09-26 12:13:00,
2013-09-26 08:18:00,55.8,46.2,30.00,NNE,30,5.0,6.0,70,0.00,,,0.00,Wunderground v.1.15,2013-09-26 12:18:00,
2013-09-26 08:23:00,56.0,46.4,30.00,North,355,4.0,5.0,70,0.00,,,0.00,Wunderground v.1.15,2013-09-26 12:23:00,
2013-09-26 08:28:00,56.2,46.2,30.00,NW,317,2.0,8.0,69,0.00,,,0.00,Wunderground v.1.15,2013-09-26 12:28:00,
2013-09-26 08:33:00,56.3,46.3,30.00,NE,38,0.0,6.0,69,0.00,,,0.00,Wunderground v.1.15,2013-09-26 12:33:00,
2013-09-26 08:38:00,56.5,45.7,30.01,NNE,23,0.0,9.0,67,0.00,,,0.00,Wunderground v.1.15,2013-09-26 12:38:00,
2013-09-26 08:43:00,56.8,46.3,30.01,North,5,8.0,8.0,68,0.00,,,0.00,Wunderground v.1.15,2013-09-26 12:43:00,
2013-09-26 08:48:00,57.0,45.7,30.01,NE,40,6.0,8.0,66,0.00,,,0.00,Wunderground v.1.15,2013-09-26 12:48:00,
2013-09-26 08:53:00,57.1,45.4,30.01,NE,52,6.0,10.0,65,0.00,,,0.00,Wunderground v.1.15,2013-09-26 12:53:00,
2013-09-26 08:58:00,57.3,45.6,30.01,NE,50,3.0,11.0,65,0.00,,,0.00,Wunderground v.1.15,2013-09-26 12:58:00,
2013-09-26 09:03:00,57.4,45.3,30.01,NE,45,7.0,9.0,64,0.00,,,0.00,Wunderground v.1.15,2013-09-26 13:03:00,
2013-09-26 09:08:00,57.5,45.4,30.01,North,350,1.0,9.0,64,0.00,,,0.00,Wunderground v.1.15,2013-09-26 13:08:00,
2013-09-26 09:13:00,57.6,45.9,30.01,NNE,29,6.0,10.0,65,0.00,,,0.00,Wunderground v.1.15,2013-09-26 13:13:00,
2013-09-26 09:18:00,57.8,46.1,30.01,NE,36,2.0,10.0,65,0.00,,,0.00,Wunderground v.1.15,2013-09-26 13:18:00,
2013-09-26 09:23:00,58.0,46.3,30.01,NE,48,4.0,11.0,65,0.00,,,0.00,Wunderground v.1.15,2013-09-26 13:23:00,
2013-09-26 09:28:00,58.1,46.0,30.01,NNW,342,9.0,11.0,64,0.00,,,0.00,Wunderground v.1.15,2013-09-26 13:28:00,
2013-09-26 09:33:00,58.2,46.1,30.02,NNW,340,4.0,11.0,64,0.00,,,0.00,Wunderground v.1.15,2013-09-26 13:33:00,
2013-09-26 09:38:00,58.4,46.3,30.02,NE,56,2.0,11.0,64,0.00,,,0.00,Wunderground v.1.15,2013-09-26 13:38:00,
2013-09-26 09:43:00,58.6,46.0,30.01,North,350,7.0,8.0,63,0.00,,,0.00,Wunderground v.1.15,2013-09-26 13:43:00,
2013-09-26 09:48:00,58.7,46.1,30.01,ESE,119,0.0,9.0,63,0.00,,,0.00,Wunderground v.1.15,2013-09-26 13:48:00,
2013-09-26 09:53:00,58.9,45.9,30.02,NNE,32,10.0,10.0,62,0.00,,,0.00,Wunderground v.1.15,2013-09-26 13:53:00,
2013-09-26 09:58:00,59.0,45.1,30.02,NE,51,7.0,10.0,60,0.00,,,0.00,Wunderground v.1.15,2013-09-26 13:58:00,
2013-09-26 10:03:00,59.0,45.1,30.02,North,350,2.0,9.0,60,0.00,,,0.00,Wunderground v.1.15,2013-09-26 14:03:00,
2013-09-26 10:08:00,59.0,45.1,30.02,NNE,23,7.0,12.0,60,0.00,,,0.00,Wunderground v.1.15,2013-09-26 14:08:00,
2013-09-26 10:13:00,59.0,45.1,30.02,NE,40,5.0,7.0,60,0.00,,,0.00,Wunderground v.1.15,2013-09-26 14:13:00,
2013-09-26 10:18:00,59.0,45.6,30.02,NE,34,4.0,8.0,61,0.00,,,0.00,Wunderground v.1.15,2013-09-26 14:18:00,
2013-09-26 10:23:00,59.0,45.6,30.02,North,355,0.0,8.0,61,0.00,,,0.00,Wunderground v.1.15,2013-09-26 14:23:00,
2013-09-26 10:28:00,59.0,45.6,30.02,North,350,4.0,8.0,61,0.00,,,0.00,Wunderground v.1.15,2013-09-26 14:28:00,
2013-09-26 10:33:00,59.0,45.6,30.02,North,355,0.0,6.0,61,0.00,,,0.00,Wunderground v.1.15,2013-09-26 14:33:00,
2013-09-26 10:38:00,59.0,45.6,30.02,NNE,32,4.0,9.0,61,0.00,,,0.00,Wunderground v.1.15,2013-09-26 14:38:00,
2013-09-26 10:43:00,59.1,46.5,30.02,ENE,72,4.0,5.0,63,0.00,,,0.00,Wunderground v.1.15,2013-09-26 14:43:00,
2013-09-26 10:48:00,59.5,46.0,30.02,ENE,74,4.0,9.0,61,0.00,,,0.00,Wunderground v.1.15,2013-09-26 14:48:00,
2013-09-26 10:53:00,59.7,46.2,30.02,NE,36,0.0,8.0,61,0.00,,,0.00,Wunderground v.1.15,2013-09-26 14:53:00,
2013-09-26 10:58:00,59.9,46.0,30.01,NNW,345,2.0,10.0,60,0.00,,,0.00,Wunderground v.1.15,2013-09-26 14:58:00,
2013-09-26 11:03:00,60.0,46.5,30.01,NW,318,4.0,6.0,61,0.00,,,0.00,Wunderground v.1.15,2013-09-26 15:03:00,
2013-09-26 11:08:00,60.1,46.6,30.01,NE,40,4.0,6.0,61,0.00,,,0.00,Wunderground v.1.15,2013-09-26 15:08:00,
2013-09-26 11:13:00,60.4,46.4,30.01,North,360,1.0,6.0,60,0.00,,,0.00,Wunderground v.1.15,2013-09-26 15:13:00,
2013-09-26 11:19:00,60.7,46.7,30.01,ENE,78,7.0,11.0,60,0.00,,,0.00,Wunderground v.1.15,2013-09-26 15:19:00,
2013-09-26 11:24:00,61.1,46.2,30.01,ENE,75,9.0,10.0,58,0.00,,,0.00,Wunderground v.1.15,2013-09-26 15:24:00,
2013-09-26 11:29:00,61.4,46.5,30.01,ENE,76,1.0,10.0,58,0.00,,,0.00,Wunderground v.1.15,2013-09-26 15:29:00,
2013-09-26 11:34:00,61.8,46.9,30.01,East,90,7.0,12.0,58,0.00,,,0.00,Wunderground v.1.15,2013-09-26 15:34:00,
2013-09-26 11:39:00,61.9,46.5,30.01,ENE,78,4.0,13.0,57,0.00,,,0.00,Wunderground v.1.15,2013-09-26 15:39:00,
2013-09-26 11:44:00,61.9,46.5,30.01,ENE,68,8.0,9.0,57,0.00,,,0.00,Wunderground v.1.15,2013-09-26 15:44:00,
2013-09-26 11:49:00,62.0,47.0,30.01,ESE,119,5.0,11.0,58,0.00,,,0.00,Wunderground v.1.15,2013-09-26 15:49:00,
2013-09-26 11:54:00,62.1,46.7,30.01,East,98,8.0,11.0,57,0.00,,,0.00,Wunderground v.1.15,2013-09-26 15:54:00,
2013-09-26 11:59:00,62.2,46.8,30.01,East,80,7.0,11.0,57,0.00,,,0.00,Wunderground v.1.15,2013-09-26 15:59:00,
2013-09-26 12:04:00,62.3,46.9,30.01,NE,42,3.0,10.0,57,0.00,,,0.00,Wunderground v.1.15,2013-09-26 16:04:00,
2013-09-26 12:09:00,62.3,46.9,30.01,NNE,12,9.0,10.0,57,0.00,,,0.00,Wunderground v.1.15,2013-09-26 16:09:00,
2013-09-26 12:14:00,62.2,46.8,30.01,ENE,60,0.0,8.0,57,0.00,,,0.00,Wunderground v.1.15,2013-09-26 16:14:00,
2013-09-26 12:19:00,62.2,46.8,30.01,ENE,72,4.0,8.0,57,0.00,,,0.00,Wunderground v.1.15,2013-09-26 16:19:00,
2013-09-26 12:24:00,62.3,46.9,30.01,East,82,9.0,9.0,57,0.00,,,0.00,Wunderground v.1.15,2013-09-26 16:24:00,
2013-09-26 12:29:00,62.4,47.0,30.01,ENE,59,7.0,11.0,57,0.00,,,0.00,Wunderground v.1.15,2013-09-26 16:29:00,
2013-09-26 12:34:00,62.5,47.5,30.01,ENE,64,1.0,10.0,58,0.00,,,0.00,Wunderground v.1.15,2013-09-26 16:34:00,
2013-09-26 12:39:00,62.5,47.1,30.01,ESE,113,3.0,10.0,57,0.00,,,0.00,Wunderground v.1.15,2013-09-26 16:39:00,
2013-09-26 12:44:00,62.5,47.1,30.01,NW,323,3.0,5.0,57,0.00,,,0.00,Wunderground v.1.15,2013-09-26 16:44:00,
2013-09-26 12:50:00,62.4,47.4,30.01,NNW,338,3.0,3.0,58,0.00,,,0.00,Wunderground v.1.15,2013-09-26 16:50:00,
2013-09-26 12:55:00,62.3,47.8,30.01,ENE,61,7.0,8.0,59,0.00,,,0.00,Wunderground v.1.15,2013-09-26 16:55:00,
2013-09-26 13:00:00,62.3,47.3,30.01,East,79,5.0,7.0,58,0.00,,,0.00,Wunderground v.1.15,2013-09-26 17:00:00,
2013-09-26 13:05:00,62.2,46.8,30.01,North,5,4.0,8.0,57,0.00,,,0.00,Wunderground v.1.15,2013-09-26 17:05:00,
2013-09-26 13:34:00,62.5,47.5,30.00,NE,54,2.0,2.0,58,0.00,,,0.00,Wunderground v.1.15,2013-09-26 17:34:00,
2013-09-26 13:53:00,62.9,47.9,30.00,ENE,69,1.0,3.0,58,0.00,,,0.00,Wunderground v.1.15,2013-09-26 17:53:00,
2013-09-26 13:58:00,63.0,48.4,30.00,West,268,2.0,5.0,59,0.00,,,0.00,Wunderground v.1.15,2013-09-26 17:58:00,
2013-09-26 14:03:00,63.1,48.1,30.00,WNW,299,1.0,5.0,58,0.00,,,0.00,Wunderground v.1.15,2013-09-26 18:03:00,
2013-09-26 14:10:00,63.2,47.7,30.00,North,355,4.0,4.0,57,0.00,,,0.00,Wunderground v.1.15,2013-09-26 18:10:00,
2013-09-26 14:15:00,63.4,47.9,30.00,ESE,106,3.0,4.0,57,0.00,,,0.00,Wunderground v.1.15,2013-09-26 18:15:00,
2013-09-26 14:20:00,63.6,48.5,30.00,SE,134,2.0,4.0,58,0.00,,,0.00,Wunderground v.1.15,2013-09-26 18:20:00,
2013-09-26 14:25:00,63.8,49.2,29.99,ENE,76,8.0,8.0,59,0.00,,,0.00,Wunderground v.1.15,2013-09-26 18:25:00,
2013-09-26 14:31:00,63.9,49.3,30.00,SE,145,4.0,9.0,59,0.00,,,0.00,Wunderground v.1.15,2013-09-26 18:31:00,
2013-09-26 14:36:00,63.9,49.7,30.00,East,92,5.0,9.0,60,0.00,,,0.00,Wunderground v.1.15,2013-09-26 18:36:00,
2013-09-26 14:41:00,63.9,49.7,30.00,SE,130,10.0,10.0,60,0.00,,,0.00,Wunderground v.1.15,2013-09-26 18:41:00,
2013-09-26 14:46:00,63.9,50.2,30.00,SSE,156,4.0,12.0,61,0.00,,,0.00,Wunderground v.1.15,2013-09-26 18:46:00,
2013-09-26 14:51:00,64.0,50.3,30.00,ESE,118,5.0,12.0,61,0.00,,,0.00,Wunderground v.1.15,2013-09-26 18:51:00,
2013-09-26 14:56:00,64.0,49.8,30.00,SE,128,8.0,10.0,60,0.00,,,0.00,Wunderground v.1.15,2013-09-26 18:56:00,
2013-09-26 15:01:00,64.0,49.8,29.99,SSE,163,5.0,11.0,60,0.00,,,0.00,Wunderground v.1.15,2013-09-26 19:01:00,
2013-09-26 15:06:00,63.8,50.1,30.00,SSW,211,7.0,11.0,61,0.00,,,0.00,Wunderground v.1.15,2013-09-26 19:06:00,
2013-09-26 15:11:00,63.7,50.4,29.99,SSE,149,5.0,6.0,62,0.00,,,0.00,Wunderground v.1.15,2013-09-26 19:11:00,
2013-09-26 15:17:00,63.6,49.9,30.00,SE,126,6.0,8.0,61,0.00,,,0.00,Wunderground v.1.15,2013-09-26 19:17:00,
2013-09-26 15:22:00,63.5,49.8,29.99,SE,141,8.0,11.0,61,0.00,,,0.00,Wunderground v.1.15,2013-09-26 19:22:00,
2013-09-26 15:27:00,63.4,49.7,29.99,ESE,121,7.0,9.0,61,0.00,,,0.00,Wunderground v.1.15,2013-09-26 19:27:00,
2013-09-26 15:32:00,63.4,50.1,29.99,South,183,3.0,9.0,62,0.00,,,0.00,Wunderground v.1.15,2013-09-26 19:32:00,
2013-09-26 15:37:00,63.3,50.1,29.99,South,190,3.0,9.0,62,0.00,,,0.00,Wunderground v.1.15,2013-09-26 19:37:00,
2013-09-26 15:42:00,63.2,50.0,29.99,SE,146,6.0,10.0,62,0.00,,,0.00,Wunderground v.1.15,2013-09-26 19:42:00,
2013-09-26 15:47:00,63.1,49.9,29.99,SE,124,9.0,11.0,62,0.00,,,0.00,Wunderground v.1.15,2013-09-26 19:47:00,
2013-09-26 15:52:00,62.9,50.1,29.99,South,174,4.0,11.0,63,0.00,,,0.00,Wunderground v.1.15,2013-09-26 19:52:00,
2013-09-26 15:57:00,62.8,50.0,29.99,SE,145,7.0,12.0,63,0.00,,,0.00,Wunderground v.1.15,2013-09-26 19:57:00,
2013-09-26 16:02:00,62.7,49.9,29.99,SE,128,10.0,11.0,63,0.00,,,0.00,Wunderground v.1.15,2013-09-26 20:02:00,
2013-09-26 16:07:00,62.6,50.2,29.99,SSE,156,3.0,12.0,64,0.00,,,0.00,Wunderground v.1.15,2013-09-26 20:07:00,
2013-09-26 16:12:00,62.5,49.7,30.00,SSE,159,3.0,11.0,63,0.00,,,0.00,Wunderground v.1.15,2013-09-26 20:12:00,
2013-09-26 16:17:00,62.4,49.6,30.00,SSE,150,8.0,11.0,63,0.00,,,0.00,Wunderground v.1.15,2013-09-26 20:17:00,
2013-09-26 16:22:00,62.3,50.0,30.00,SSE,158,4.0,9.0,64,0.00,,,0.00,Wunderground v.1.15,2013-09-26 20:22:00,
2013-09-26 16:27:00,62.2,50.3,30.00,SE,140,9.0,9.0,65,0.00,,,0.00,Wunderground v.1.15,2013-09-26 20:27:00,
2013-09-26 16:32:00,62.1,49.8,30.00,SE,130,3.0,8.0,64,0.00,,,0.00,Wunderground v.1.15,2013-09-26 20:32:00,
2013-09-26 16:37:00,62.0,49.7,30.00,SE,135,6.0,8.0,64,0.00,,,0.00,Wunderground v.1.15,2013-09-26 20:37:00,
2013-09-26 16:42:00,61.9,49.6,30.00,SE,144,4.0,8.0,64,0.00,,,0.00,Wunderground v.1.15,2013-09-26 20:42:00,
2013-09-26 16:47:00,61.8,49.5,30.00,SSE,156,5.0,8.0,64,0.00,,,0.00,Wunderground v.1.15,2013-09-26 20:47:00,
2013-09-26 16:52:00,61.7,49.4,30.00,SE,133,5.0,9.0,64,0.00,,,0.00,Wunderground v.1.15,2013-09-26 20:52:00,
2013-09-26 16:57:00,61.7,49.4,30.00,SE,126,6.0,9.0,64,0.00,,,0.00,Wunderground v.1.15,2013-09-26 20:57:00,
2013-09-26 17:02:00,61.6,49.3,30.00,SE,145,6.0,8.0,64,0.00,,,0.00,Wunderground v.1.15,2013-09-26 21:02:00,
2013-09-26 17:07:00,61.6,49.7,30.00,ESE,123,3.0,9.0,65,0.00,,,0.00,Wunderground v.1.15,2013-09-26 21:07:00,
2013-09-26 17:12:00,61.5,49.2,30.00,SE,126,5.0,6.0,64,0.00,,,0.00,Wunderground v.1.15,2013-09-26 21:12:00,
2013-09-26 17:17:00,61.5,49.2,30.00,SSE,149,1.0,7.0,64,0.00,,,0.00,Wunderground v.1.15,2013-09-26 21:17:00,
2013-09-26 17:22:00,61.4,49.5,30.00,SSW,192,4.0,4.0,65,0.00,,,0.00,Wunderground v.1.15,2013-09-26 21:22:00,
2013-09-26 17:27:00,61.4,49.5,30.00,SSE,157,2.0,6.0,65,0.00,,,0.00,Wunderground v.1.15,2013-09-26 21:27:00,
2013-09-26 17:32:00,61.3,49.0,30.00,SE,128,5.0,5.0,64,0.00,,,0.00,Wunderground v.1.15,2013-09-26 21:32:00,
2013-09-26 17:37:00,61.3,49.4,30.01,SE,137,5.0,7.0,65,0.00,,,0.00,Wunderground v.1.15,2013-09-26 21:37:00,
2013-09-26 17:43:00,61.2,49.3,30.01,SE,133,6.0,7.0,65,0.00,,,0.00,Wunderground v.1.15,2013-09-26 21:43:00,
2013-09-26 17:48:00,61.2,49.3,30.01,SE,140,4.0,8.0,65,0.00,,,0.00,Wunderground v.1.15,2013-09-26 21:48:00,
2013-09-26 17:53:00,61.1,49.2,30.01,SSE,158,3.0,7.0,65,0.00,,,0.00,Wunderground v.1.15,2013-09-26 21:53:00,
2013-09-26 17:58:00,61.1,49.2,30.01,SE,132,7.0,9.0,65,0.00,,,0.00,Wunderground v.1.15,2013-09-26 21:58:00,
2013-09-26 18:03:00,61.0,49.1,30.02,ESE,110,8.0,9.0,65,0.00,,,0.00,Wunderground v.1.15,2013-09-26 22:03:00,
2013-09-26 18:08:00,61.0,49.6,30.02,ESE,119,5.0,10.0,66,0.00,,,0.00,Wunderground v.1.15,2013-09-26 22:08:00,
2013-09-26 18:13:00,60.9,49.5,30.02,ESE,115,7.0,10.0,66,0.00,,,0.00,Wunderground v.1.15,2013-09-26 22:13:00,
2013-09-26 18:18:00,60.8,49.4,30.02,SE,136,3.0,10.0,66,0.00,,,0.00,Wunderground v.1.15,2013-09-26 22:18:00,
2013-09-26 18:23:00,60.6,49.2,30.02,SE,127,8.0,9.0,66,0.00,,,0.00,Wunderground v.1.15,2013-09-26 22:23:00,
2013-09-26 18:28:00,60.5,49.5,30.02,SE,134,4.0,10.0,67,0.00,,,0.00,Wunderground v.1.15,2013-09-26 22:28:00,
2013-09-26 18:33:00,60.3,49.3,30.03,SE,132,5.0,10.0,67,0.00,,,0.00,Wunderground v.1.15,2013-09-26 22:33:00,
2013-09-26 18:38:00,60.0,49.0,30.03,SE,131,5.0,10.0,67,0.00,,,0.00,Wunderground v.1.15,2013-09-26 22:38:00,
2013-09-26 18:43:00,59.8,48.8,30.03,SE,136,5.0,10.0,67,0.00,,,0.00,Wunderground v.1.15,2013-09-26 22:43:00,
2013-09-26 18:48:00,59.6,49.0,30.03,ESE,114,2.0,10.0,68,0.00,,,0.00,Wunderground v.1.15,2013-09-26 22:48:00,
2013-09-26 18:53:00,59.4,48.8,30.03,ESE,114,2.0,5.0,68,0.00,,,0.00,Wunderground v.1.15,2013-09-26 22:53:00,
2013-09-26 18:58:00,59.2,48.6,30.03,ESE,115,3.0,5.0,68,0.00,,,0.00,Wunderground v.1.15,2013-09-26 22:58:00,
2013-09-26 19:03:00,59.0,48.4,30.03,ESE,117,3.0,4.0,68,0.00,,,0.00,Wunderground v.1.15,2013-09-26 23:03:00,
2013-09-26 19:08:00,59.0,48.8,30.03,SE,130,3.0,4.0,69,0.00,,,0.00,Wunderground v.1.15,2013-09-26 23:08:00,
2013-09-26 19:13:00,59.0,48.8,30.03,SE,128,3.0,4.0,69,0.00,,,0.00,Wunderground v.1.15,2013-09-26 23:13:00,
2013-09-26 19:18:00,58.9,48.7,30.03,SE,128,3.0,4.0,69,0.00,,,0.00,Wunderground v.1.15,2013-09-26 23:18:00,
2013-09-26 19:24:00,58.7,48.6,30.04,SE,128,3.0,4.0,69,0.00,,,0.00,Wunderground v.1.15,2013-09-26 23:24:00,
2013-09-26 19:29:00,58.6,48.8,30.04,SE,125,3.0,5.0,70,0.00,,,0.00,Wunderground v.1.15,2013-09-26 23:29:00,
2013-09-26 19:34:00,58.5,48.7,30.04,SE,126,3.0,4.0,70,0.00,,,0.00,Wunderground v.1.15,2013-09-26 23:34:00,
2013-09-26 19:39:00,58.4,48.7,30.04,SE,125,0.0,4.0,70,0.00,,,0.00,Wunderground v.1.15,2013-09-26 23:39:00,
2013-09-26 19:44:00,58.4,48.7,30.04,SE,125,1.0,3.0,70,0.00,,,0.00,Wunderground v.1.15,2013-09-26 23:44:00,
2013-09-26 19:49:00,58.3,48.6,30.04,SE,125,2.0,3.0,70,0.00,,,0.00,Wunderground v.1.15,2013-09-26 23:49:00,
2013-09-26 19:54:00,58.2,48.5,30.04,SE,126,1.0,3.0,70,0.00,,,0.00,Wunderground v.1.15,2013-09-26 23:54:00,
2013-09-26 19:59:00,58.2,48.8,30.04,SE,125,2.0,3.0,71,0.00,,,0.00,Wunderground v.1.15,2013-09-26 23:59:00,
2013-09-26 20:04:00,58.2,48.8,30.05,ESE,121,1.0,3.0,71,0.00,,,0.00,Wunderground v.1.15,2013-09-27 00:04:00,
2013-09-26 20:10:00,58.2,49.2,30.05,ESE,121,3.0,3.0,72,0.00,,,0.00,Wunderground v.1.15,2013-09-27 00:10:00,
2013-09-26 20:15:00,58.2,49.2,30.05,ESE,121,0.0,3.0,72,0.00,,,0.00,Wunderground v.1.15,2013-09-27 00:15:00,
2013-09-26 20:20:00,58.2,49.2,30.05,ESE,121,0.0,1.0,72,0.00,,,0.00,Wunderground v.1.15,2013-09-27 00:20:00,
2013-09-26 20:25:00,58.3,49.3,30.05,ESE,121,2.0,3.0,72,0.00,,,0.00,Wunderground v.1.15,2013-09-27 00:25:00,
2013-09-26 20:30:00,58.3,49.3,30.05,SE,125,2.0,3.0,72,0.00,,,0.00,Wunderground v.1.15,2013-09-27 00:30:00,
2013-09-26 20:35:00,58.3,49.3,30.05,SE,125,2.0,3.0,72,0.00,,,0.00,Wunderground v.1.15,2013-09-27 00:35:00,
2013-09-26 20:40:00,58.4,49.4,30.05,SSE,159,3.0,3.0,72,0.00,,,0.00,Wunderground v.1.15,2013-09-27 00:40:00,
2013-09-26 20:45:00,58.4,49.4,30.06,ESE,105,2.0,4.0,72,0.00,,,0.00,Wunderground v.1.15,2013-09-27 00:45:00,
2013-09-26 20:50:00,58.4,49.0,30.06,ESE,105,0.0,2.0,71,0.00,,,0.00,Wunderground v.1.15,2013-09-27 00:50:00,
2013-09-26 20:55:00,58.5,49.1,30.06,ESE,106,1.0,2.0,71,0.00,,,0.00,Wunderground v.1.15,2013-09-27 00:55:00,
2013-09-26 21:00:00,58.5,49.1,30.06,ESE,106,0.0,1.0,71,0.00,,,0.00,Wunderground v.1.15,2013-09-27 01:00:00,
2013-09-26 21:05:00,58.5,48.7,30.06,ESE,105,0.0,2.0,70,0.00,,,0.00,Wunderground v.1.15,2013-09-27 01:05:00,
2013-09-26 21:10:00,58.6,48.8,30.06,ESE,105,0.0,1.0,70,0.00,,,0.00,Wunderground v.1.15,2013-09-27 01:10:00,
2013-09-26 21:15:00,58.6,48.8,30.06,ESE,106,0.0,1.0,70,0.00,,,0.00,Wunderground v.1.15,2013-09-27 01:15:00,
2013-09-26 21:20:00,58.6,48.8,30.06,ESE,105,0.0,1.0,70,0.00,,,0.00,Wunderground v.1.15,2013-09-27 01:20:00,
2013-09-26 21:25:00,58.6,48.8,30.06,ESE,105,0.0,2.0,70,0.00,,,0.00,Wunderground v.1.15,2013-09-27 01:25:00,
2013-09-26 21:30:00,58.6,48.8,30.06,ESE,105,0.0,1.0,70,0.00,,,0.00,Wunderground v.1.15,2013-09-27 01:30:00,
2013-09-26 21:35:00,58.6,48.8,30.07,ESE,106,2.0,2.0,70,0.00,,,0.00,Wunderground v.1.15,2013-09-27 01:35:00,
2013-09-26 21:40:00,58.6,48.8,30.07,ESE,106,2.0,2.0,70,0.00,,,0.00,Wunderground v.1.15,2013-09-27 01:40:00,
2013-09-26 21:45:00,58.6,49.2,30.07,ESE,106,0.0,2.0,71,0.00,,,0.00,Wunderground v.1.15,2013-09-27 01:45:00,
2013-09-26 21:50:00,58.6,49.2,30.07,ESE,106,0.0,0.0,71,0.00,,,0.00,Wunderground v.1.15,2013-09-27 01:50:00,
2013-09-26 21:55:00,58.6,49.2,30.07,ESE,105,0.0,1.0,71,0.00,,,0.00,Wunderground v.1.15,2013-09-27 01:55:00,
2013-09-26 22:00:00,58.6,48.8,30.07,ESE,106,0.0,0.0,70,0.00,,,0.00,Wunderground v.1.15,2013-09-27 02:00:00,
2013-09-26 22:05:00,58.6,48.8,30.07,ESE,106,0.0,0.0,70,0.00,,,0.00,Wunderground v.1.15,2013-09-27 02:05:00,
2013-09-26 22:11:00,58.5,49.1,30.07,ESE,105,1.0,2.0,71,0.00,,,0.00,Wunderground v.1.15,2013-09-27 02:11:00,
2013-09-26 22:16:00,58.3,48.9,30.08,ESE,105,1.0,2.0,71,0.00,,,0.00,Wunderground v.1.15,2013-09-27 02:16:00,
2013-09-26 22:21:00,58.1,49.1,30.08,ESE,105,0.0,0.0,72,0.00,,,0.00,Wunderground v.1.15,2013-09-27 02:21:00,
2013-09-26 22:26:00,58.0,49.0,30.08,ESE,106,0.0,1.0,72,0.00,,,0.00,Wunderground v.1.15,2013-09-27 02:26:00,
2013-09-26 22:31:00,57.8,49.2,30.08,ESE,105,1.0,2.0,73,0.00,,,0.00,Wunderground v.1.15,2013-09-27 02:31:00,
2013-09-26 22:36:00,57.7,49.1,30.08,North,9,2.0,4.0,73,0.00,,,0.00,Wunderground v.1.15,2013-09-27 02:36:00,
2013-09-26 22:41:00,57.6,49.4,30.08,North,9,0.0,2.0,74,0.00,,,0.00,Wunderground v.1.15,2013-09-27 02:41:00,
2013-09-26 22:46:00,57.4,49.2,30.08,North,9,1.0,4.0,74,0.00,,,0.00,Wunderground v.1.15,2013-09-27 02:46:00,
2013-09-26 22:51:00,57.4,49.2,30.08,NNW,337,1.0,4.0,74,0.00,,,0.00,Wunderground v.1.15,2013-09-27 02:51:00,
2013-09-26 22:56:00,57.3,49.4,30.08,NNW,337,1.0,4.0,75,0.00,,,0.00,Wunderground v.1.15,2013-09-27 02:56:00,
2013-09-26 23:01:00,57.2,49.3,30.08,NNW,336,1.0,4.0,75,0.00,,,0.00,Wunderground v.1.15,2013-09-27 03:01:00,
2013-09-26 23:06:00,57.2,49.3,30.08,NNW,337,1.0,4.0,75,0.00,,,0.00,Wunderground v.1.15,2013-09-27 03:06:00,
2013-09-26 23:11:00,57.2,49.3,30.08,NNW,337,0.0,1.0,75,0.00,,,0.00,Wunderground v.1.15,2013-09-27 03:11:00,
2013-09-26 23:16:00,57.2,49.3,30.08,NNW,336,0.0,3.0,75,0.00,,,0.00,Wunderground v.1.15,2013-09-27 03:16:00,
2013-09-26 23:21:00,57.1,49.2,30.08,NNW,338,2.0,4.0,75,0.00,,,0.00,Wunderground v.1.15,2013-09-27 03:21:00,
2013-09-26 23:26:00,57.1,49.2,30.09,NNW,337,4.0,4.0,75,0.00,,,0.00,Wunderground v.1.15,2013-09-27 03:26:00,
2013-09-26 23:31:00,57.1,49.2,30.09,NNW,346,2.0,4.0,75,0.00,,,0.00,Wunderground v.1.15,2013-09-27 03:31:00,
2013-09-26 23:36:00,57.0,49.2,30.09,NNW,348,3.0,5.0,75,0.00,,,0.00,Wunderground v.1.15,2013-09-27 03:36:00,
2013-09-26 23:41:00,57.1,49.2,30.09,NNW,348,1.0,3.0,75,0.00,,,0.00,Wunderground v.1.15,2013-09-27 03:41:00,
2013-09-26 23:46:00,57.1,49.2,30.09,NNE,16,2.0,4.0,75,0.00,,,0.00,Wunderground v.1.15,2013-09-27 03:46:00,
2013-09-26 23:51:00,57.2,49.3,30.09,North,9,2.0,5.0,75,0.00,,,0.00,Wunderground v.1.15,2013-09-27 03:51:00,
2013-09-26 23:56:00,57.3,49.4,30.09,NNE,32,5.0,7.0,75,0.00,,,0.00,Wunderground v.1.15,2013-09-27 03:56:00,